[[{"header":{"parameterUnit":"m.s-1","parameterCategory":1,"la1":30.2991,"la2":30.254,"lo1":-89.0895,"lo2":-89.0444,"dy":0.0017,"dx":0.0017,"nx":28,"ny":28,"refTime":"2024-02-11T09:00:00:Z","depth":0,"parameterNumber":2,"parameterNumberName":"U-component_of_WINDS"},"data":[0,0,0,0,0,0,0,0,0,0,0,0,0,0,0,0,0,0,0,0,0,0,0,0,0,0,0,0,0,0,0,0,0,0,0,0,0,0,0,0,0,0,0,0,0,0,0,0,0,0,0,0,0,0,0,0,0,0,8.3516,8.3517,0,8.3608,8.3609,8.361,8.3519,8.3516,8.3512,8.3509,8.3606,8.3612,8.3618,0,0,0,0,0,0,0,0,0,0,0,0,0,8.3268,8.3273,8.3516,8.3517,8.3518,8.3608,8.3609,8.361,8.352,8.3516,8.3511,8.3507,8.3604,8.3611,8.3618,0,0,0,0,0,0,0,0,0,0,0,0,0,8.3369,8.3274,8.3516,8.3484,8.3482,8.3607,8.3609,8.361,8.3521,8.3516,8.351,8.3505,8.3602,8.3611,8.3619,8.3781,0,0,8.3646,8.365,0,0,0,0,0,0,0,0,8.3364,8.3378,8.3488,8.3487,8.3485,8.3547,8.3557,8.3668,8.3522,8.3506,8.3509,8.3503,8.3591,8.36,8.3629,8.3786,8.379,8.3647,8.3653,8.3656,8.3659,0,0,0,0,0,0,0,8.3357,8.3374,8.3552,8.3489,8.3488,8.3467,8.3475,8.3577,8.3578,8.3507,8.3501,8.3513,8.3589,8.3621,8.3631,8.3791,8.3647,8.3655,8.366,8.3664,8.4088,8.4093,0,0,0,0,0,0,8.3353,8.3369,8.3549,8.3555,8.341,8.3476,8.3485,8.3532,8.3576,8.3578,8.3517,8.3508,8.3609,8.3621,8.3634,8.3828,8.3656,8.3665,8.367,8.4082,8.4089,8.4095,0,0,0,0,0,0,8.3348,8.3369,8.3546,8.346,8.3481,8.3486,8.3539,8.3537,8.3569,8.3584,8.3584,8.355,8.3605,8.3622,8.3746,8.383,8.3669,8.3677,8.4075,8.4084,8.4092,8.4215,0,0,0,0,0,0,8.3341,8.3368,8.3428,8.3462,8.3486,8.3655,8.3544,8.3542,8.3584,8.3573,8.3614,8.3616,8.3602,8.3733,8.3755,8.3839,8.3684,8.4067,8.4079,8.4089,8.4204,8.4227,8.4248,0,0,0,0,0,8.3332,8.346,8.3432,8.3454,8.3561,8.366,8.3673,8.3653,8.3591,8.3652,8.3663,8.3615,8.3817,8.3746,8.377,8.3858,8.4062,8.4076,8.4089,8.4194,8.4223,8.4247,0,0,0,0,0,0,8.3436,8.3464,8.3433,8.3575,8.3616,8.3644,8.3721,8.3684,8.3744,8.3732,8.3706,8.3716,8.3848,8.3865,8.3786,8.4019,8.393,8.3948,8.4002,8.4029,8.4051,8.4043,8.3691,0,0,0,0,0,8.3476,8.3552,8.3572,8.3696,8.3718,8.3716,8.3758,8.374,8.3781,8.3798,8.3817,8.386,8.3934,8.3982,8.4051,8.4206,8.4215,8.4279,8.4301,8.4319,8.4335,8.442,8.445,8.4139,8.4139,8.4139,0,0,8.3558,8.3583,8.3632,8.3718,8.3747,8.3828,8.3731,8.3821,8.3881,8.3812,8.393,8.3946,8.3993,8.4134,8.4197,8.4153,8.4423,8.4336,8.435,8.4357,8.4437,8.4467,8.4493,8.4148,8.4147,8.4145,0,0,8.375,8.3775,8.3882,8.3913,8.3959,8.3957,8.3983,8.4018,8.4025,8.4143,8.4094,8.4166,8.4293,8.4328,8.4363,8.4571,8.453,8.4594,8.4708,8.4792,8.4816,8.4838,8.4912,8.4939,8.4611,8.4611,8.4611,0,8.3846,8.3965,8.3941,8.4035,8.4075,8.4016,8.4124,8.4156,8.4223,8.4252,8.4202,8.436,8.4388,8.4537,8.4588,8.4618,8.4647,8.4589,8.4814,8.4836,8.4856,8.4926,8.4955,8.4619,8.4618,8.4617,8.4616,0,8.4083,8.4166,8.4247,8.4312,8.4361,8.4462,8.4454,8.4507,8.4485,8.449,8.4612,8.4643,8.4717,8.4751,8.4731,8.4899,8.487,8.4818,8.4728,8.4893,8.4959,8.4986,8.4629,8.4627,8.4624,8.4623,0,0,8.4341,8.4392,8.4422,8.4452,8.4499,8.4563,8.4663,8.4734,8.4781,8.4829,8.4912,8.5022,8.4975,8.5014,8.4998,8.5071,8.5235,8.501,8.501,8.5051,8.5423,8.5461,8.5493,8.5208,8.5213,8.5217,8.5419,0,8.4534,8.4704,8.4687,8.485,8.4928,8.4874,8.4961,8.5,8.5008,8.5076,8.5085,8.5163,8.5094,8.5118,8.5188,8.52,8.5309,8.5185,8.5286,8.529,8.5275,8.5527,8.5568,8.5756,8.5444,8.5449,8.5452,0,8.4781,8.4838,8.5009,8.5045,8.5077,8.5155,8.5221,8.5286,8.5331,8.5331,8.5377,8.5348,8.545,8.5358,8.5499,8.5415,8.5456,8.5468,8.5475,8.5483,8.538,8.5542,8.5816,8.5844,8.5492,8.5489,8.5486,0,8.4953,8.5073,8.519,8.5217,8.5262,8.5319,8.5341,8.5379,8.5424,8.5482,8.5511,8.5581,8.5619,8.5674,8.5666,8.56,8.581,8.5717,8.5813,8.5814,8.5859,8.5856,8.6143,8.5887,8.5886,8.5886,8.5885,0,8.517,8.5277,8.5268,8.534,8.5459,8.5439,8.5558,8.5573,8.5608,8.5684,8.5643,8.5715,8.5699,8.5772,8.5767,8.5884,8.5902,8.5906,8.5903,8.5909,8.5909,8.5935,8.5921,8.5893,8.5892,8.589,8.5889,0,8.5382,8.538,8.5505,8.5538,8.5549,8.5635,8.5664,8.5733,8.5738,8.5835,8.5856,8.5864,8.5948,8.5945,8.604,8.6036,8.618,8.6163,8.6165,8.6161,8.6258,8.6249,8.6571,8.6612,8.633,8.6332,8.6335,0,8.552,8.5601,8.5643,8.569,8.5716,8.5793,8.5838,8.5823,8.5872,8.593,8.5993,8.6072,8.6134,8.6271,8.6286,8.6358,8.6342,8.645,8.6352,8.6356,8.6343,8.6338,8.6346,8.6469,8.6472,8.6474,8.6476,0,8.5766,8.5762,8.5828,8.5896,8.5952,8.6004,8.6052,8.6094,8.6084,8.6142,8.6226,8.6275,8.6372,8.6452,8.6522,8.6545,8.6511,8.6507,8.6533,8.654,8.6538,8.654,8.6217,8.65,8.6497,8.6496,8.6494,8.6493,8.5945,8.6015,8.6056,8.6132,8.6167,8.6213,8.628,8.6294,8.6363,8.644,8.6427,8.6522,8.6566,8.6657,8.6687,8.6762,8.6724,8.6762,8.6771,8.678,8.6791,8.6527,8.6775,8.6774,8.6773,8.6773,8.6772,0,8.6189,8.6213,8.6283,8.6352,8.6413,8.6374,8.6426,8.6479,8.6563,8.6607,8.6669,8.6767,8.6844,8.6866,8.6941,8.6997,8.6983,8.7017,8.7013,8.7019,8.6821,8.6791,8.7028,8.7028,8.7028,8.7028,8.7028,8.7027,8.6323,8.6439,8.644,8.6573,8.6597,8.6688,8.6721,8.6765,8.6799,8.691,8.6974,8.6988,8.7023,8.7101,8.7171,8.7175,8.7205,8.7246,8.7244,8.7058,8.7033,8.7008,8.698,8.7253,8.7253,8.7435,8.7437,8.7438]},{"header":{"parameterUnit":"m.s-1","parameterCategory":1,"la1":30.2991,"la2":30.254,"lo1":-89.0895,"lo2":-89.0444,"dy":0.0017,"dx":0.0017,"nx":28,"ny":28,"refTime":"2024-02-11T09:00:00:Z","depth":0,"parameterNumber":3,"parameterNumberName":"V-component_of_WINDS"},"data":[0,0,0,0,0,0,0,0,0,0,0,0,0,0,0,0,0,0,0,0,0,0,0,0,0,0,0,0,0,0,0,0,0,0,0,0,0,0,0,0,0,0,0,0,0,0,0,0,0,0,0,0,0,0,0,0,0,0,1.28,1.2801,0,1.2974,1.2976,1.2978,1.3051,1.305,1.305,1.305,1.3231,1.3236,1.3241,0,0,0,0,0,0,0,0,0,0,0,0,0,1.2527,1.2532,1.2799,1.2802,1.2804,1.2974,1.2977,1.2979,1.3051,1.305,1.305,1.3049,1.3229,1.3235,1.3241,0,0,0,0,0,0,0,0,0,0,0,0,0,1.2668,1.2533,1.2799,1.286,1.2867,1.2974,1.2977,1.298,1.3051,1.305,1.305,1.3049,1.3227,1.3235,1.3242,1.3301,0,0,1.3266,1.3269,0,0,0,0,0,0,0,0,1.266,1.2678,1.2849,1.2856,1.2864,1.299,1.2947,1.3088,1.3051,1.2981,1.305,1.3049,1.3151,1.3165,1.3199,1.331,1.3318,1.3267,1.3271,1.3275,1.3277,0,0,0,0,0,0,0,1.265,1.2671,1.2869,1.2851,1.2861,1.2879,1.2898,1.2974,1.3067,1.2987,1.2993,1.3013,1.3155,1.3192,1.3204,1.332,1.3266,1.3273,1.3278,1.3281,1.3486,1.3486,0,0,0,0,0,0,1.263,1.2662,1.2863,1.2874,1.2759,1.2884,1.2906,1.295,1.3067,1.3084,1.3013,1.3015,1.3179,1.3195,1.3211,1.3287,1.3275,1.3282,1.3286,1.3485,1.3486,1.3487,0,0,0,0,0,0,1.2624,1.2647,1.2856,1.277,1.2798,1.2889,1.2939,1.2954,1.2991,1.3086,1.3103,1.3033,1.3179,1.32,1.3278,1.3294,1.3285,1.3292,1.3484,1.3485,1.3486,1.3439,0,0,0,0,0,0,1.2616,1.2645,1.2669,1.277,1.2802,1.292,1.294,1.2958,1.3003,1.3008,1.3109,1.3125,1.318,1.3266,1.3285,1.3304,1.3298,1.3483,1.3485,1.3486,1.344,1.3438,1.3437,0,0,0,0,0,1.2606,1.2649,1.2669,1.2693,1.2833,1.2921,1.2939,1.3001,1.3004,1.3029,1.309,1.3122,1.3288,1.3273,1.3296,1.3317,1.3482,1.3484,1.3486,1.344,1.3439,1.3438,0,0,0,0,0,0,1.2549,1.2664,1.2687,1.2765,1.2832,1.2933,1.2966,1.2998,1.3066,1.3068,1.3142,1.3164,1.3235,1.3284,1.3265,1.338,1.3388,1.3394,1.3345,1.3345,1.3344,1.3331,1.3305,0,0,0,0,0,1.2545,1.2606,1.2703,1.2762,1.2795,1.2874,1.2914,1.2955,1.3029,1.3058,1.3125,1.3195,1.3263,1.3307,1.3375,1.3446,1.3469,1.3472,1.3471,1.347,1.3475,1.3515,1.3517,1.3492,1.3492,1.3492,0,0,1.2539,1.2609,1.2643,1.2752,1.281,1.2871,1.2898,1.2962,1.3009,1.3068,1.3146,1.3196,1.3279,1.3354,1.339,1.3397,1.3486,1.3472,1.347,1.3476,1.3517,1.3519,1.3521,1.3494,1.3493,1.3493,0,0,1.2558,1.2617,1.2672,1.2728,1.2814,1.2866,1.2878,1.2974,1.3009,1.3088,1.3133,1.3189,1.3305,1.3361,1.3405,1.3442,1.3474,1.3462,1.3457,1.3495,1.3497,1.3499,1.3512,1.3515,1.3466,1.3466,1.3466,0,1.2539,1.2634,1.2696,1.2758,1.2804,1.2858,1.2914,1.2965,1.3069,1.3099,1.3105,1.325,1.331,1.3397,1.3406,1.344,1.3456,1.3452,1.3491,1.3494,1.3497,1.351,1.3514,1.3464,1.3464,1.3465,1.3465,0,1.2606,1.267,1.2704,1.2801,1.2851,1.2909,1.298,1.3022,1.3058,1.3109,1.3186,1.326,1.3342,1.3366,1.3402,1.3458,1.3459,1.3477,1.3487,1.3496,1.3509,1.3515,1.3461,1.3462,1.3463,1.3463,0,0,1.2597,1.2725,1.2737,1.2781,1.2877,1.2929,1.2988,1.3068,1.3102,1.3171,1.3222,1.3317,1.3333,1.3383,1.3426,1.3459,1.3482,1.3473,1.3476,1.3472,1.3547,1.3533,1.3538,1.3503,1.3504,1.3505,1.354,0,1.2629,1.2738,1.2795,1.2879,1.2939,1.299,1.3042,1.3106,1.3155,1.3212,1.3266,1.3331,1.3348,1.3378,1.3413,1.3472,1.3498,1.347,1.3552,1.3554,1.353,1.3545,1.3531,1.3561,1.3545,1.3546,1.3547,0,1.2682,1.2749,1.2839,1.2926,1.2954,1.2999,1.3075,1.3129,1.3203,1.3236,1.3289,1.333,1.3394,1.3398,1.3486,1.3466,1.3502,1.3535,1.3538,1.3549,1.3551,1.3556,1.3572,1.3576,1.3556,1.3555,1.3554,0,1.2666,1.2778,1.2846,1.2882,1.2986,1.3016,1.3061,1.3134,1.3178,1.3244,1.3273,1.3346,1.3386,1.3441,1.3501,1.3498,1.3583,1.3592,1.3612,1.361,1.3629,1.3627,1.365,1.3651,1.3651,1.3651,1.365,0,1.2696,1.2749,1.2839,1.2881,1.2942,1.3005,1.3063,1.3112,1.3176,1.3228,1.3276,1.3324,1.3399,1.3456,1.3502,1.3568,1.3586,1.3614,1.3626,1.361,1.3606,1.3636,1.3635,1.3652,1.3652,1.3651,1.3651,0,1.2689,1.2752,1.2829,1.292,1.2944,1.2985,1.3063,1.3105,1.3154,1.3219,1.3238,1.3316,1.3385,1.3449,1.3541,1.3572,1.3638,1.3653,1.3613,1.362,1.3636,1.3633,1.368,1.3689,1.3682,1.3682,1.3682,0,1.2705,1.2747,1.2842,1.2879,1.2923,1.2983,1.3027,1.309,1.3134,1.3219,1.3251,1.3323,1.3384,1.3491,1.3556,1.3626,1.3644,1.3655,1.3655,1.3637,1.3644,1.3641,1.3645,1.3654,1.3654,1.3654,1.3654,0,1.2726,1.2754,1.2815,1.2887,1.2937,1.2997,1.3058,1.3086,1.3161,1.3207,1.3277,1.3324,1.3417,1.3488,1.3565,1.3611,1.3645,1.3652,1.3661,1.3646,1.3621,1.3634,1.361,1.3652,1.3652,1.3652,1.3652,1.3652,1.2731,1.277,1.2842,1.2908,1.296,1.3015,1.3058,1.3112,1.3172,1.3252,1.3285,1.3356,1.3427,1.3533,1.3578,1.3635,1.3642,1.3654,1.3657,1.366,1.3656,1.361,1.3649,1.3649,1.3649,1.3649,1.3649,0,1.2754,1.2802,1.2862,1.2945,1.2997,1.3022,1.309,1.3132,1.3193,1.3256,1.3314,1.3394,1.3462,1.353,1.3602,1.3633,1.365,1.365,1.3649,1.3659,1.3646,1.3631,1.3635,1.3635,1.3635,1.3635,1.3635,1.3635,1.2772,1.2839,1.2875,1.2967,1.3015,1.3084,1.3121,1.3171,1.3221,1.3308,1.3364,1.3408,1.3473,1.3549,1.3612,1.363,1.3655,1.365,1.3672,1.3659,1.366,1.3661,1.3647,1.3655,1.3655,1.3681,1.3682,1.3682]}]]